Regional Weather Roundup
Issued by NWS

Home | Current Version | Previous Version | Graphics & Text | Print | Product List | Glossary On
Versions: 1 2 3 4 5 6 7 8 9 10 11 12 13 14 15 16 17 18 19 20 21 22 23 24 25 26 27 28 29 30 31 32 33 34 35 36 37 38 39 40 41 42 43 44 45 46 47 48 49 50
000
ASUS43 KDMX 180907
RWRIA

WEATHER ROUNDUP FOR IOWA
NATIONAL WEATHER SERVICE DES MOINES IA
400 AM CDT THU SEP 18 2014

NOTE: "FAIR" INDICATES FEW OR NO CLOUDS BELOW 12,000 FEET WITH NO
SIGNIFICANT WEATHER AND/OR OBSTRUCTIONS TO VISIBILITY.

* - THESE STATIONS ARE NOT NWS STATIONS...THUS NOT UNDER NWS
QUALITY CONTROL.  THEY ALSO DO NOT REPORT WEATHER SUCH
AS PRECIPITATION OR FOG.

IAZ001>003-012>014-020>022-031>034-043>046-181000-
   NORTHWEST IOWA

CITY           SKY/WX    TMP DP  RH WIND       PRES   REMARKS
CARROLL *      FOG       46  46 100 CALM      30.00S VSB 1/4
CHEROKEE *     PTCLDY    54  54 100 CALM      29.99S
DENISON *      CLEAR     55  55 100 CALM      29.98S
LE MARS *        N/A     54  54 100 CALM      29.98S
ORANGE CITY *  CLEAR     57  54  88 CALM      29.99S
SHELDON *      MOCLDY    54  54 100 E6        29.99S
SIOUX CITY     PTCLDY    58  55  90 SE5       29.97F
SPENCER        CLEAR     50  47  89 E5        30.00F
STORM LAKE *   CLEAR     52  52 100 SE5       29.99F
$$

IAZ055>058-069>071-079>083-090>094-181000-
   SOUTHWEST IOWA

CITY           SKY/WX    TMP DP  RH WIND       PRES   REMARKS
ATLANTIC *     CLEAR     52  52 100 NE3       29.99S FOG
AUDUBON *      CLEAR     48  43  81 CALM      30.01S
CLARINDA *     CLOUDY    61  61 100 SE3       30.00S FOG
COUNCIL BLFS * CLEAR     59  59 100 SE6       29.97S
CRESTON *      FOG       57  57 100 CALM      30.01R VSB 0
HARLAN  *      CLEAR     54  54 100 E3        30.02S
LAMONI         FOG       57  57 100 E3        29.99F VSB 1/4
SHENANDOAH *     N/A     59  59 100 VRB3      29.99R
$$

IAZ047>049-059>061-072>074-084-181000-
   CENTRAL IOWA

CITY           SKY/WX    TMP DP  RH WIND       PRES   REMARKS
AMES           FOG       50  50 100 CALM      30.02S VSB 1/2
ANKENY *       PTCLDY    54  54 100 CALM      30.02S
CHARITON *     PTCLDY    54  54 100 E6        30.01R FOG
DES MOINES     PTCLDY    57  55  93 CALM      30.01S
GRINNELL*      PTCLDY    52  50  93 E3        30.03F FOG
KNOXVILLE *    CLEAR     55  54  94 SE3       30.00S FOG
MARSHALLTOWN   PTCLDY    50  49  96 E5        30.03S FOG
PELLA *        PTCLDY    55  54  94 CALM      30.03S
PERRY *          N/A     54  52  94 SE5       30.01S FOG
$$

IAZ004>006-015-016-023>025-035-036-181000-
   NORTH CENTRAL IOWA

CITY           SKY/WX    TMP DP  RH WIND       PRES   REMARKS
ALGONA *       PTCLDY    54  52  94 SE6       30.02F
CLARION *        N/A     50  50 100 E5        30.02F
ESTHERVILLE    CLEAR     49  48  97 SE6       30.01S
FORT DODGE *   CLEAR     50  48  93 E5        30.02S
MASON CITY     CLEAR     46  45  96 CALM      30.05S
FOREST CITY *  CLEAR     46  46 100 CALM      30.03F
IOWA FALLS *     N/A     50  48  93 SE3       30.04S FOG
$$

IAZ007>011-017>019-026>030-037>042-050>054-066-181000-
   NORTHEAST IOWA

CITY           SKY/WX    TMP DP  RH WIND       PRES   REMARKS
CEDAR RAPIDS   CLEAR     49  49 100 CALM      30.03S FOG
CHARLES CITY * CLEAR     50  48  93 SE3       30.05S
CLINTON *      CLEAR     46  45  93 NE5       30.06F
DECORAH *      CLEAR     48  46  93 CALM      30.05R
DUBUQUE        MOCLDY    50  48  93 CALM      30.06R
MONTICELLO *   CLEAR     45  45 100 CALM      30.05S FOG
OELWEIN *      CLEAR     50  48  93 SE5       30.05S
WATERLOO       CLEAR     44  43  96 CALM      30.03F
$$

IAZ064-065-067-068-078-181000-
   EAST CENTRAL IOWA

CITY           SKY/WX    TMP DP  RH WIND       PRES   REMARKS
DAVENPORT      CLEAR     48  45  89 CALM      30.04F FOG
IOWA CITY      FOG       48  48 100 CALM      30.04F VSB 1/2
MT. PLEASANT * CLEAR     48  48 100 NE3       30.03S FOG
MUSCATINE *    FOG       48  48 100 CALM      30.04S VSB 0
QUAD CITIES    FOG       47  46  97 CALM      30.04S VSB 1/2
$$

IAZ062-063-075>077-085>089-095>099-181000-
   SOUTHEAST IOWA

CITY           SKY/WX    TMP DP  RH WIND       PRES   REMARKS
BURLINGTON     CLEAR     50  50 100 NE3       30.02F FOG
FAIRFIELD *    CLEAR     50  48  93 E5        30.02F FOG
FORT MADISON * FOG       48  48 100 CALM      30.02F VSB 1/4
KEOKUK *       FOG       50  50 100 CALM      30.00F VSB 0
OSKALOOSA *      N/A     50  48  93 E3        30.02S FOG
CENTERVILLE *  FOG       50  50 100 CALM      30.02S VSB 1/2
OTTUMWA        CLEAR     48  47  96 E3        30.01F FOG
WASHINGTON *   CLEAR     48  48 100 E6        30.02F FOG
$$

ABBREVIATIONS USED IN REMARKS
   TC - TEMPERATURES IN CELSIUS
  WCI - WIND CHILL INDEX
   HX - HEAT INDEX
  VSB - VISIBILITY
$$



USA.gov is the U.S. government's official web portal to all federal, state and local government web resources and services.